Weather Roundup
Issued by NWS

Home | Current Version | Previous Version | Graphics & Text | Print | Product List | Glossary Off
Versions: 1 2 3 4 5 6 7 8 9 10 11 12 13 14 15 16 17 18 19 20 21 22 23 24 25 26 27 28 29 30 31 32 33 34 35 36 37 38 39 40 41 42 43 44 45 46 47 48 49 50

000
NZUS93 KARX 041810
HRRWXR

CURRENT HOURLY OBSERVATIONS ACROSS
MUCH OF THE UPPER MISSISSIPPI VALLEY
NATIONAL WEATHER SERVICE LA CROSSE WI
1200 PM CST WED MAR 04 2015


...SOUTHEAST MINNESOTA...


CITY           SKY/WX    TMP DP  RH WIND       PRES   REMARKS
ROCHESTER      FAIR       8  -3  61 NW15      30.21R WCI  -9
ROCHESTER/MAYO FAIR      10  -5  52 W12G22    30.22S WCI  -5
WINONA         FAIR      14   0  52 W8        30.26S WCI   3
AUSTIN         FAIR       9  -4  56 NW13      30.23S WCI  -7
ALBERT LEA     FAIR      10  -2  56 NW8       30.24S WCI  -1
DODGE CENTER   FAIR       9  -2  61 NW12      30.21R WCI  -6
PRESTON        FAIR       7  -4  60 W14       30.22S WCI -10
OWATONNA       FAIR       9  -2  61 NW15      30.24R WCI  -8
FARIBAULT      FAIR      10   0  61 W12       30.25R WCI  -4
$$

...ELSEWHERE IN MINNESOTA...


CITY           SKY/WX    TMP DP  RH WIND       PRES   REMARKS
MINNEAPOLIS    PTSUNNY    8  -6  52 NW14G26   30.25R WCI  -8
INTNL FALLS    CLOUDY    -3 -14  59 W15G22    30.12R HAZE    WCI -23
DULUTH         PTSUNNY    1 -12  54 W18G26    30.06R WCI -20
RED WING       FAIR      10  -8  44 W13G21    30.24S WCI  -5
REDWOOD FALLS  LGT SNOW   9  -1  64 NW12G20   30.28R WCI  -6
MANKATO        FAIR      10   0  61 NW14      30.26R WCI  -5
FAIRMONT       CLOUDY    12   0  57 N9        30.24S WCI   0
$$

...SOUTHWEST WISCONSIN...


CITY           SKY/WX    TMP DP  RH WIND       PRES   REMARKS
LA CROSSE      FAIR      14  -3  47 NW10      30.24S WCI   1
PRAIRIE DU CHI FAIR      13  -5  45 W10       30.26S WCI  -1
BOSCOBEL       FAIR      14  -4  44 NW13      30.24S WCI   0
LONE ROCK      FAIR      14  -5  42 NW15      30.21R WCI  -1
PLATTEVILLE    FAIR      14  -1  51 W15G21    30.20R WCI  -2
FORT MC COY    FAIR      13  -7  41 W8G20     30.21S WCI   1
CAMP DOUGLAS   SUNNY     12  -4  48 W15G22    30.17S WCI  -4
VIROQUA        FAIR      11  -5  49 NW14      30.17S WCI  -5
WIS DELLS      FAIR      13  -3  48 W15       30.15F WCI  -3
$$

...ELSEWHERE IN WISCONSIN...


CITY           SKY/WX    TMP DP  RH WIND       PRES   REMARKS
MILWAUKEE      MOSUNNY   18   0  45 W15G23    30.13R WCI   4
MADISON        FAIR      16  -2  45 NW14G20   30.16R WCI   2
GREEN BAY      SUNNY     12  -3  51 W16G26    30.11R WCI  -5
EAU CLAIRE     FAIR       8  -8  48 W15       30.19R WCI  -9
BLACK RVR FLS  FAIR      10  -7  44 W10G20    30.21R WCI  -3
MEDFORD        FAIR       6 -10  48 W17G26    30.07R WCI -13
WAUSAU         FAIR       6  -7  54 W20       30.08R WCI -14
WIS RAPIDS     FAIR      11  -8  42 NW17G24   30.15R WCI  -6
MARSHFIELD     FAIR       7  -9  48 NW16      30.12R WCI -11
RICE LAKE      FAIR       7 -10  46 W13       30.18R WCI -10
$$

...NORTHEAST IOWA...


CITY           SKY/WX    TMP DP  RH WIND       PRES   REMARKS
DECORAH        FAIR      10  -8  44 NW9G18    30.21F WCI  -2
MASON CITY     FAIR      10  -2  58 NW13      30.26S WCI  -5
CHARLES CITY   FAIR      10  -4  52 NW15      30.26R WCI  -6
OELWEIN        FAIR      10  -4  52 NW12      30.26R WCI  -4
$$

...ELSEWHERE IN IOWA...


CITY           SKY/WX    TMP DP  RH WIND       PRES   REMARKS
DES MOINES     PTSUNNY   22   4  46 NW13      30.29F WCI  10
IOWA CITY      FAIR      15   0  51 NW15G25   30.30S WCI   0
FORT DODGE     FAIR      21   7  53 W10G17    30.24F WCI  10
$$

...NORTHERN ILLINOIS...


CITY           SKY/WX    TMP DP  RH WIND       PRES   REMARKS
CHICAGO-OHARE  PTSUNNY   19   8  62 W14G31    30.13R WCI   6
CHICAGO-MIDWAY CLOUDY    22   9  57 W14       30.14R WCI   9
MOLINE         FAIR      16   4  59 NW15      30.26R WCI   1
ROCKFORD       PTSUNNY   16   2  54 NW16      30.18F WCI   1
PEORIA         FAIR      19   2  47 NW10      30.23R WCI   7
$$

NOTE: "FAIR" INDICATES FEW OR NO CLOUDS BELOW 12,000 FEET WITH NO
SIGNIFICANT WEATHER AND/OR OBSTRUCTIONS TO VISIBILITY. WIND
SPEEDS ARE IN MILES-PER-HOUR.



USA.gov is the U.S. government's official web portal to all federal, state and local government web resources and services.